TimePST,TemperatureF,Dew PointF,Humidity,Sea Level PressureIn,VisibilityMPH,Wind Direction,Wind SpeedMPH,Gust SpeedMPH,PrecipitationIn,Events,Conditions,WindDirDegrees,DateUTC
12:00 AM,44.8,43.7,96,30.17,-9999.0,SSE,21.9,-,N/A,,Unknown,160,2013-02-14 08:00:00
1:00 AM,44.2,42.4,93,30.17,-9999.0,South,15.0,-,N/A,,Unknown,180,2013-02-14 09:00:00
2:00 AM,44.1,41.9,92,30.19,-9999.0,South,10.4,-,N/A,,Unknown,180,2013-02-14 10:00:00
3:00 AM,43.7,41.5,92,30.20,-9999.0,South,3.5,-,N/A,,Unknown,170,2013-02-14 11:00:00
4:00 AM,44,42,90,30.19,,South,3.5,,,,,190,2013-02-14 12:00:00
4:00 AM,43.5,42.1,95,30.19,-9999.0,South,3.5,-,N/A,,Unknown,190,2013-02-14 12:00:00
5:00 AM,44.2,42.4,93,30.21,-9999.0,South,11.5,-,N/A,,Unknown,180,2013-02-14 13:00:00
6:00 AM,43.9,42.1,93,30.20,-9999.0,SSW,4.6,-,N/A,,Unknown,200,2013-02-14 14:00:00
7:00 AM,44.8,43.0,93,30.20,-9999.0,South,8.1,-,N/A,,Unknown,170,2013-02-14 15:00:00
8:00 AM,44.2,42.4,93,30.22,-9999.0,SSW,4.6,-,N/A,,Unknown,200,2013-02-14 16:00:00
9:00 AM,43.5,42.1,95,30.22,-9999.0,SW,2.3,-,N/A,,Unknown,230,2013-02-14 17:00:00
10:00 AM,45,43,91,30.23,,WSW,1.2,,,,,240,2013-02-14 18:00:00
10:00 AM,44.6,43.2,95,30.23,-9999.0,WSW,1.2,-,N/A,,Unknown,240,2013-02-14 18:00:00
11:00 AM,45.1,43.7,95,30.24,-9999.0,NW,2.3,-,N/A,,Unknown,310,2013-02-14 19:00:00
12:00 PM,45.5,43.9,94,30.26,-9999.0,North,3.5,-,N/A,,Unknown,10,2013-02-14 20:00:00
1:00 PM,46.6,44.6,93,30.26,-9999.0,Calm,Calm,-,N/A,,Unknown,0,2013-02-14 21:00:00
2:00 PM,47.1,44.6,91,30.26,-9999.0,NE,2.3,-,N/A,,Unknown,40,2013-02-14 22:00:00
3:00 PM,47.8,44.2,87,30.25,-9999.0,SE,6.9,-,N/A,,Unknown,140,2013-02-14 23:00:00
4:00 PM,50,44,73,30.24,,SE,4.6,,,,,130,2013-02-15 00:00:00
4:00 PM,50.0,43.9,79,30.24,-9999.0,SE,4.6,-,N/A,,Unknown,130,2013-02-15 00:00:00
5:00 PM,49.1,45.1,86,30.21,-9999.0,SE,21.9,-,N/A,,Unknown,140,2013-02-15 01:00:00
6:00 PM,48.9,45.3,87,30.21,-9999.0,SE,19.6,-,N/A,,Unknown,140,2013-02-15 02:00:00
7:00 PM,50.5,45.9,84,30.22,-9999.0,SSE,16.1,-,N/A,,Unknown,150,2013-02-15 03:00:00
8:00 PM,50.2,45.5,84,30.21,-9999.0,SSE,15.0,-,N/A,,Unknown,150,2013-02-15 04:00:00
9:00 PM,53.1,45.3,75,30.22,-9999.0,West,13.8,-,N/A,,Unknown,260,2013-02-15 05:00:00
10:00 PM,49,45,83,30.22,,SSE,15.0,,,,,160,2013-02-15 06:00:00
10:00 PM,49.5,45.3,86,30.22,-9999.0,SSE,15.0,-,N/A,,Unknown,160,2013-02-15 06:00:00
11:00 PM,48.6,45.7,90,30.22,-9999.0,SSE,24.2,-,N/A,,Unknown,160,2013-02-15 07:00:00